S/N Title Course Code Date Modified Action
1 Principles of Coagulation Screening 2 MLS 524 2018-02-05 08:51:52 Download
2 Principles of Coagulation Screening MLS 524 2018-02-05 08:49:43 Download
3 Blood Donor Selection and Screening MLS 306 2018-02-05 08:37:50 Download
4 The Agacher Strip War - Lesson Note PCS 412 2018-01-30 17:04:03 Download
5 Deepwater Horizon Presentation PTE 518 2018-01-30 17:03:43 Download
6 Course Outline PCS 412 2018-01-30 17:02:47 Download
7 Differences in Accounting Practices (Accounting Diversity) ACC 406 2018-01-30 02:25:27 Download
8 International Accounting-Introduction ACC 406 2018-01-30 02:24:01 Download
9 What is negotiation--Skills u need PCS 410 2018-01-29 21:41:24 Download
10 Plannig negotiation PCS 410 2018-01-29 21:36:29 Download
11 Sources of power in negotiation PCS 410 2018-01-29 21:35:08 Download
12 What is Neg & Approaches to Neg PCS 410 2018-01-29 21:33:14 Download
13 Obstacles to negotiation PCS 410 2018-01-29 21:32:23 Download
14 Negotiation Notes PCS 410 2018-01-29 21:25:28 Download
15 Mediation Notes 2 PCS 410 2018-01-29 21:24:57 Download
16 Mediation Notes PCS 410 2018-01-29 21:24:19 Download
17 Course Syllabus PCS 410 2018-01-29 21:19:55 Download
18 Lab Report Template CHE 302 2018-01-29 07:58:50 Download
19 ENG 382 Assignment I ENG 382 2018-01-25 20:54:45 Download
20 SPE 61464 PTE 518 2018-01-23 16:55:09 Download
21 PTE 518 Lecture Note 1 PTE 518 2018-01-22 18:57:51 Download
22 ghsagfas GST 201 2018-01-17 12:35:49 Download
23 ACC 405 Study Material ACC 405 2017-12-08 14:44:41 Download
24 ACC 405 ACC 405 2017-12-08 14:42:12 Download
25 SMS/ACC 301 SMS 301 2017-12-08 14:38:26 Download
26 Professional Practice and Code of Ethics ACC 205 2017-11-29 13:24:07 Download
27 Hemoglobinopathies MLS 407 2017-11-25 11:03:54 Download
28 ITS 401 Gender Security in War and Peace Syllabus ITS 401 2017-11-24 14:37:44 Download
29 Draft Syllabus PCS 203 2017-11-24 14:20:42 Download
30 Lecture 4 Note CHE 431 2017-11-23 22:24:14 Download
31 Lecture Note 04 CHE 341 2017-11-23 20:45:22 Download
32 Lecture Note 04 2017-11-23 20:44:38 Download
33 Environment, Climate Change and Inter Rel PCS 203 2017-11-23 19:44:25 Download
34 Climate Change Treaties PCS 203 2017-11-23 19:42:40 Download
35 Ethics and Accountants ACC 205 2017-11-21 11:59:45 Download
36 Introduction to Accounting Standards ACC 301 2017-11-21 11:55:36 Download
37 ONLINE TEST 3 GST 113 2017-11-20 11:17:08 Download
38 bubbleT CHE 431 2017-11-17 12:51:14 Download
39 bubbleP CHE 431 2017-11-17 12:50:54 Download
40 dewP CHE 431 2017-11-17 12:50:37 Download
41 dewT CHE 431 2017-11-17 12:50:21 Download
42 pTFlash CHE 431 2017-11-17 12:49:17 Download
43 Lecture Note 2 CHE 431 2017-11-17 12:43:21 Download
44 Lecture Note 03 CHE 341 2017-11-16 23:07:44 Download
45 ENG 381 Assignment V ENG 381 2017-11-16 09:04:57 Download
46 CHE 531 Assignment V CHE 531 2017-11-16 06:38:32 Download
47 ENG 281 Assignment V ENG 281 2017-11-16 01:44:06 Download
48 Organoleptic qualities of foods NTD 303 2017-11-13 15:42:26 Download
49 Gene expression MCB 301 2017-11-13 13:32:50 Download
50 Finite Difference Approximation_Corrected LN3 PTE 519 2017-11-13 11:48:13 Download
51 Peace Education on Nixty PCS 207 2017-11-13 09:08:48 Download
52 PTE 519 Lecture Note 5 PTE 519 2017-11-11 13:14:56 Download
53 PTE 519 Lecture Note 1_Derivation_Corrected PTE 519 2017-11-11 10:41:31 Download
54 CHE 531 Assignment IV CHE 531 2017-11-10 19:32:21 Download
55 ENG 381 Assignment IV ENG 381 2017-11-10 06:53:23 Download
56 TUTORIAL QUESTIONS FOR CHE 101 2017/2018 CHE 101 2017-11-09 16:10:38 Download
57 PHYLUM ANNELIDA ZOO 201 2017-11-09 15:23:36 Download
58 TUTORIAL QUESTIONS ZOO 201 2017-11-09 15:21:39 Download
59 CHE 311 SLIDES PART 11 CHE 311 2017-11-09 01:57:12 Download
60 ENG 281 Assignment IV ENG 281 2017-11-08 21:13:40 Download
61 TUTORIAL QUESTIONS BIO 103 2017-11-07 22:32:42 Download
62 NOTES PART 3 ENG 485 2017-11-07 06:49:10 Download
63 ABSTRACT WRITING ASSIGNMENT ENG 485 2017-11-07 06:44:03 Download
64 Contemporary Health Issues 1 (Lecture 7) AFE 101 2017-11-04 16:11:00 Download
65 Contemporary Health Issues 1 (Lecture 6) AFE 101 2017-11-04 15:59:03 Download
66 Contemporary Health Issues 1 (Lecture 5) AFE 101 2017-11-04 15:51:36 Download
67 Contemporary Health Issues 1 (Lecture 4) AFE 101 2017-11-04 15:50:36 Download
68 Contemporary Health Issues 1 (Lecture 3) AFE 101 2017-11-04 15:49:01 Download
69 Contemporary Health Issues 1 (Lecture 2) AFE 101 2017-11-04 15:47:03 Download
70 Human behavior in illness2 NSC 311 2017-11-03 16:44:20 Download
71 Human behavior in illness NSC 311 2017-11-03 16:42:29 Download
72 disease causation NSC 301 2017-11-03 16:40:53 Download
73 Introduction to Epidemiology NSC 301 2017-11-03 16:39:48 Download
74 Investigation of epidemics NSC 301 2017-11-03 16:38:41 Download
75 Descriptive studies NSC 301 2017-11-03 16:37:21 Download
76 CNS 3 NSC 407 2017-11-03 15:43:31 Download
77 CNS 2 NSC 407 2017-11-03 15:42:24 Download
78 Review of nervous system NSC 407 2017-11-03 15:40:18 Download
79 Blood disorders NSC 305 2017-11-03 15:38:28 Download
80 CVS 4 NSC 305 2017-11-03 15:36:12 Download
81 CVS 3 NSC 305 2017-11-03 15:30:59 Download
82 CVS2 NSC 305 2017-11-03 15:29:13 Download
83 Review of anatomy and physiology NSC 305 2017-11-03 15:28:35 Download
84 Resistance slide MCB 403 2017-11-03 10:46:36 Download
85 GMP MCB 403 2017-11-03 10:41:55 Download
86 PHYLUM MOLLUSCA ZOO 201 2017-11-02 21:15:13 Download
87 PHYLUM NEMATODA ZOO 201 2017-11-02 21:13:56 Download
88 PHYLUM PLATYHELMINTHES ZOO 201 2017-11-02 21:12:33 Download
89 PHYLUM CNIDARIA ZOO 201 2017-11-02 21:11:34 Download
90 PHYLUM PORIFERA ZOO 201 2017-11-02 21:10:25 Download
91 PHYLUM PROTOZOA ZOO 201 2017-11-02 21:09:11 Download
92 Microbial Genetics Slide MCB 301 2017-11-02 14:41:44 Download
93 lecture one AFE 101 2017-11-02 08:23:43 Download
94 3. Logic and its importance GST 113 2017-11-01 15:23:53 Download
95 Executorship ACC 409 2017-11-01 08:47:15 Download
96 Foreign Branches ACC 301 2017-11-01 01:36:55 Download
97 1. What Philosophy is slides GST 113 2017-10-30 23:48:16 Download
98 ONLINE TEST 2 GST 113 2017-10-30 23:42:11 Download
99 lecture one AFE 101 2017-10-30 15:57:43 Download
100 The Board of Directors ACC 205 2017-10-30 15:57:00 Download
101 Lecture 2 Note CHE 341 2017-10-30 09:38:28 Download
102 Lecture 2 2017-10-30 09:37:20 Download
103 Laboratory Glassware Cleaning MLS 201 2017-10-27 18:03:10 Download
104 PROJECT WORK FOR CSC409 CSC 409 2017-10-27 12:19:53 Download
105 Chapter 1 cont CSC 201 2017-10-27 12:08:39 Download
106 Chapter 1 CSC 201 2017-10-27 12:07:40 Download
107 Principles of Antibiotic usage MCB 403 2017-10-26 14:05:46 Download
108 CHE 311 SLIDES PART 1 CHE 311 2017-10-26 11:22:12 Download
109 Lecture 1 CHE 431 2017-10-26 06:31:36 Download
110 Course Outline ELS 121 2017-10-25 14:45:51 Download
111 Resistance note MCB 403 2017-10-25 14:35:09 Download
112 Linear Algebra MAT 205 2017-10-25 11:46:27 Download
113 Cytopathic effects MCB 311 2017-10-25 10:22:25 Download
114 Linear Algebra MAT 205 2017-10-24 14:05:45 Download
115 Set and Venn Diagrams MAT 101 2017-10-24 13:33:14 Download
116 Concept of Peace 2017-10-23 17:02:03 Download
117 Course Outline 2017-10-23 16:44:39 Download
118 Course outline PCS 103 2017-10-23 16:42:49 Download
119 PTE 519 Lecture Note 3 PTE 519 2017-10-20 12:55:07 Download
120 PTE 519 Lecture Note 4 PTE 519 2017-10-20 12:53:48 Download
121 CHE 531 Assignment III CHE 531 2017-10-19 06:40:36 Download
122 ENG 381 Assignment III ENG 381 2017-10-18 19:50:36 Download
123 Antibiotic Mechanisms of Action MCB 403 2017-10-18 09:49:30 Download
124 ENG 281 Assignment III ENG 281 2017-10-18 08:35:05 Download
125 ENG 281 Assignment III ENG 281 2017-10-18 08:33:28 Download
126 PCS 101 Course Syllabus PCS 101 2017-10-18 08:21:41 Download
127 Lecture note CHE 341 2017-10-17 22:54:49 Download
128 Migration and Trapping PTE 423 2017-10-17 19:31:19 Download
129 ONLINE TEST 1 GST 113 2017-10-17 15:23:46 Download
130 Resolution 1325 Basic PCS 401 2017-10-17 06:09:56 Download
131 Gender, conflict, and peace PCS 401 2017-10-17 06:08:52 Download
132 History of Peace Education PCS 207 2017-10-17 05:52:12 Download
133 History of Peace Education PCS 207 2017-10-17 05:48:21 Download
134 Key Thinkers in Peace Education PCS 207 2017-10-17 05:46:59 Download
135 Peace Education Definitions PCS 207 2017-10-17 05:46:39 Download
136 Key Thinkers in Peace Education PCS 207 2017-10-17 05:45:36 Download
137 History of Peace Education PCS 107 2017-10-17 05:44:42 Download
138 Peace Education Definitions PCS 207 2017-10-17 05:44:41 Download
139 PCS 207 Peace Education and Culture of Peace Syllabus PCS 207 2017-10-17 05:43:58 Download
140 Approaches to Corporate Governance ACC 205 2017-10-16 21:55:31 Download
141 Agency Theory ACC 205 2017-10-16 21:53:46 Download
142 Origing of Petroleum PTE 423 2017-10-14 13:05:49 Download
143 World Distribution of Petroleum and Gas PTE 317 2017-10-14 12:55:37 Download
144 Mining and Mineral Resources PTE 317 2017-10-14 11:26:40 Download
145 ENG 281 Assignment I ENG 281 2017-10-13 19:18:11 Download
146 ENG 381 Assignment II ENG 381 2017-10-13 11:15:34 Download
147 CHE 531 Assignment II CHE 531 2017-10-13 11:12:47 Download
148 CHE 531 Assignment I CHE 531 2017-10-13 11:07:43 Download
149 ENG 381 Assignment I ENG 381 2017-10-13 10:55:33 Download
150 ENG 281 Assignment II ENG 281 2017-10-13 10:35:48 Download
151 GST 113 COURSE OUTLINE GST 113 2017-10-12 23:04:38 Download
152 nutrient-drug interaction NTD 401 2017-10-12 12:58:48 Download
153 Additional notes on Drilling fluid test PTE 313 2017-10-11 18:22:31 Download
154 Drilling fluid- Field test PTE 313 2017-10-11 18:17:23 Download